Year,Month,Day,Hour,Minute,Value (Times are PST for temperature in C)
2015,04,17,00,00,7.50
2015,04,17,00,01,7.50
2015,04,17,00,02,7.50
2015,04,17,00,03,7.60
2015,04,17,00,04,7.60
2015,04,17,00,05,7.60
2015,04,17,00,06,7.60
2015,04,17,00,07,7.60
2015,04,17,00,08,7.60
2015,04,17,00,09,7.60
2015,04,17,00,10,7.60
2015,04,17,00,11,7.60
2015,04,17,00,12,7.60
2015,04,17,00,13,7.60
2015,04,17,00,14,7.60
2015,04,17,00,15,7.60
2015,04,17,00,16,7.60
2015,04,17,00,17,7.60
2015,04,17,00,18,7.60
2015,04,17,00,19,7.60
2015,04,17,00,20,7.60
2015,04,17,00,21,7.60
2015,04,17,00,22,7.60
2015,04,17,00,23,7.60
2015,04,17,00,24,7.60
2015,04,17,00,25,7.60
2015,04,17,00,26,7.60
2015,04,17,00,27,7.60
2015,04,17,00,28,7.60
2015,04,17,00,29,7.60
2015,04,17,00,30,7.60
2015,04,17,00,31,7.60
2015,04,17,00,32,7.60
2015,04,17,00,33,7.60
2015,04,17,00,34,7.60
2015,04,17,00,35,7.60
2015,04,17,00,36,7.60
2015,04,17,00,37,7.60
2015,04,17,00,38,7.60
2015,04,17,00,39,7.70
2015,04,17,00,40,7.70
2015,04,17,00,41,7.70
2015,04,17,00,42,7.70
2015,04,17,00,43,7.70
2015,04,17,00,44,7.70
2015,04,17,00,45,7.70
2015,04,17,00,46,7.70
2015,04,17,00,47,7.70
2015,04,17,00,48,7.70
2015,04,17,00,49,7.70
2015,04,17,00,50,7.70
2015,04,17,00,51,7.70
2015,04,17,00,52,7.70
2015,04,17,00,53,7.70
2015,04,17,00,54,7.70
2015,04,17,00,55,7.80
2015,04,17,00,56,7.80
2015,04,17,00,57,7.80
2015,04,17,00,58,7.80
2015,04,17,00,59,7.80
2015,04,17,01,00,7.80
2015,04,17,01,01,7.80
2015,04,17,01,02,7.80
2015,04,17,01,03,7.80
2015,04,17,01,04,7.80
2015,04,17,01,05,7.80
2015,04,17,01,06,7.80
2015,04,17,01,07,7.80
2015,04,17,01,08,7.80
2015,04,17,01,09,7.80
2015,04,17,01,10,7.80
2015,04,17,01,11,7.80
2015,04,17,01,12,7.80
2015,04,17,01,13,7.80
2015,04,17,01,14,7.80
2015,04,17,01,15,7.80
2015,04,17,01,16,7.80
2015,04,17,01,17,7.80
2015,04,17,01,18,7.80
2015,04,17,01,19,7.80
2015,04,17,01,20,7.80
2015,04,17,01,21,7.80
2015,04,17,01,22,7.90
2015,04,17,01,23,7.90
2015,04,17,01,24,7.90
2015,04,17,01,25,7.90
2015,04,17,01,26,7.90
2015,04,17,01,27,7.90
2015,04,17,01,28,7.90
2015,04,17,01,29,7.90
2015,04,17,01,30,7.90
2015,04,17,01,31,7.90
2015,04,17,01,32,7.90
2015,04,17,01,33,7.90
2015,04,17,01,34,7.90
2015,04,17,01,35,7.90
2015,04,17,01,36,7.90
2015,04,17,01,37,7.90
2015,04,17,01,38,7.90
2015,04,17,01,39,7.90
2015,04,17,01,40,7.90
2015,04,17,01,41,7.90
2015,04,17,01,42,7.90
2015,04,17,01,43,7.90
2015,04,17,01,44,7.90
2015,04,17,01,45,7.90
2015,04,17,01,46,7.90
2015,04,17,01,47,7.90
2015,04,17,01,48,7.80
2015,04,17,01,49,7.80
2015,04,17,01,50,7.80
2015,04,17,01,51,7.80
2015,04,17,01,52,7.80
2015,04,17,01,53,7.80
2015,04,17,01,54,7.80
2015,04,17,01,55,7.80
2015,04,17,01,56,7.80
2015,04,17,01,57,7.80
2015,04,17,01,58,7.80
2015,04,17,01,59,7.80
2015,04,17,02,00,7.90
2015,04,17,02,01,7.90
2015,04,17,02,02,7.90
2015,04,17,02,03,7.90
2015,04,17,02,04,8.00
2015,04,17,02,05,8.00
2015,04,17,02,06,8.10
2015,04,17,02,07,8.10
2015,04,17,02,08,8.10
2015,04,17,02,09,8.20
2015,04,17,02,10,8.20
2015,04,17,02,11,8.20
2015,04,17,02,12,8.20
2015,04,17,02,13,8.20
2015,04,17,02,14,8.20
2015,04,17,02,15,8.20
2015,04,17,02,16,8.30
2015,04,17,02,17,8.30
2015,04,17,02,18,8.30
2015,04,17,02,19,8.30
2015,04,17,02,20,8.30
2015,04,17,02,21,8.20
2015,04,17,02,22,8.20
2015,04,17,02,23,8.20
2015,04,17,02,24,8.20
2015,04,17,02,25,8.10
2015,04,17,02,26,8.10
2015,04,17,02,27,8.10
2015,04,17,02,28,8.10
2015,04,17,02,29,8.10
2015,04,17,02,30,8.10
2015,04,17,02,31,8.10
2015,04,17,02,32,8.00
2015,04,17,02,33,8.00
2015,04,17,02,34,8.00
2015,04,17,02,35,8.00
2015,04,17,02,36,8.00
2015,04,17,02,37,8.00
2015,04,17,02,38,8.00
2015,04,17,02,39,7.90
2015,04,17,02,40,7.90
2015,04,17,02,41,7.90
2015,04,17,02,42,7.90
2015,04,17,02,43,8.00
2015,04,17,02,44,8.00
2015,04,17,02,45,8.00
2015,04,17,02,46,8.00
2015,04,17,02,47,8.00
2015,04,17,02,48,8.00
2015,04,17,02,49,7.90
2015,04,17,02,50,7.90
2015,04,17,02,51,7.90
2015,04,17,02,52,7.90
2015,04,17,02,53,7.90
2015,04,17,02,54,7.90
2015,04,17,02,55,7.90
2015,04,17,02,56,7.80
2015,04,17,02,57,7.80
2015,04,17,02,58,7.80
2015,04,17,02,59,7.80
2015,04,17,03,00,7.80
2015,04,17,03,01,7.80
2015,04,17,03,02,7.80
2015,04,17,03,03,7.80
2015,04,17,03,04,7.80
2015,04,17,03,05,7.80
2015,04,17,03,06,7.80
2015,04,17,03,07,7.80
2015,04,17,03,08,7.80
2015,04,17,03,09,7.80
2015,04,17,03,10,7.80
2015,04,17,03,11,7.80
2015,04,17,03,12,7.80
2015,04,17,03,13,7.80
2015,04,17,03,14,7.80
2015,04,17,03,15,7.80
2015,04,17,03,16,7.80
2015,04,17,03,17,7.70
2015,04,17,03,18,7.70
2015,04,17,03,19,7.70
2015,04,17,03,20,7.70
2015,04,17,03,21,7.70
2015,04,17,03,22,7.70
2015,04,17,03,23,7.60
2015,04,17,03,24,7.60
2015,04,17,03,25,7.60
2015,04,17,03,26,7.60
2015,04,17,03,27,7.60
2015,04,17,03,28,7.60
2015,04,17,03,29,7.50
2015,04,17,03,30,7.50
2015,04,17,03,31,7.50
2015,04,17,03,32,7.50
2015,04,17,03,33,7.50
2015,04,17,03,34,7.50
2015,04,17,03,35,7.40
2015,04,17,03,36,7.40
2015,04,17,03,37,7.40
2015,04,17,03,38,7.40
2015,04,17,03,39,7.40
2015,04,17,03,40,7.40
2015,04,17,03,41,7.40
2015,04,17,03,42,7.30
2015,04,17,03,43,7.30
2015,04,17,03,44,7.30
2015,04,17,03,45,7.30
2015,04,17,03,46,7.30
2015,04,17,03,47,7.30
2015,04,17,03,48,7.30
2015,04,17,03,49,7.30
2015,04,17,03,50,7.30
2015,04,17,03,51,7.30
2015,04,17,03,52,7.30
2015,04,17,03,53,7.30
2015,04,17,03,54,7.30
2015,04,17,03,55,7.30
2015,04,17,03,56,7.30
2015,04,17,03,57,7.30
2015,04,17,03,58,7.30
2015,04,17,03,59,7.30
2015,04,17,04,00,7.30
2015,04,17,04,01,7.20
2015,04,17,04,02,7.20
2015,04,17,04,03,7.20
2015,04,17,04,04,7.20
2015,04,17,04,05,7.20
2015,04,17,04,06,7.20
2015,04,17,04,07,7.20
2015,04,17,04,08,7.20
2015,04,17,04,09,7.20
2015,04,17,04,10,7.20
2015,04,17,04,11,7.20
2015,04,17,04,12,7.20
2015,04,17,04,13,7.20
2015,04,17,04,14,7.20
2015,04,17,04,15,7.20
2015,04,17,04,16,7.20
2015,04,17,04,17,7.20
2015,04,17,04,18,7.20
2015,04,17,04,19,7.20
2015,04,17,04,20,7.20
2015,04,17,04,21,7.20
2015,04,17,04,22,7.20
2015,04,17,04,23,7.20
2015,04,17,04,24,7.20
2015,04,17,04,25,7.20
2015,04,17,04,26,7.20
2015,04,17,04,27,7.20
2015,04,17,04,28,7.20
2015,04,17,04,29,7.20
2015,04,17,04,30,7.20
2015,04,17,04,31,7.20
2015,04,17,04,32,7.20
2015,04,17,04,33,7.20
2015,04,17,04,34,7.10
2015,04,17,04,35,7.10
2015,04,17,04,36,7.10
2015,04,17,04,37,7.10
2015,04,17,04,38,7.10
2015,04,17,04,39,7.10
2015,04,17,04,40,7.10
2015,04,17,04,41,7.10
2015,04,17,04,42,7.10
2015,04,17,04,43,7.10
2015,04,17,04,44,7.10
2015,04,17,04,45,7.10
2015,04,17,04,46,7.10
2015,04,17,04,47,7.00
2015,04,17,04,48,7.00
2015,04,17,04,49,7.00
2015,04,17,04,50,7.00
2015,04,17,04,51,7.00
2015,04,17,04,52,7.00
2015,04,17,04,53,7.00
2015,04,17,04,54,7.00
2015,04,17,04,55,7.00
2015,04,17,04,56,7.00
2015,04,17,04,57,7.00
2015,04,17,04,58,7.00
2015,04,17,04,59,7.00
2015,04,17,05,00,7.00
2015,04,17,05,01,6.90
2015,04,17,05,02,6.90
2015,04,17,05,03,6.90
2015,04,17,05,04,6.90
2015,04,17,05,05,6.90
2015,04,17,05,06,6.90
2015,04,17,05,07,6.90
2015,04,17,05,08,6.90
2015,04,17,05,09,6.90
2015,04,17,05,10,6.80
2015,04,17,05,11,6.80
2015,04,17,05,12,6.80
2015,04,17,05,13,6.80
2015,04,17,05,14,6.80
2015,04,17,05,15,6.80
2015,04,17,05,16,6.80
2015,04,17,05,17,6.80
2015,04,17,05,18,6.70
2015,04,17,05,19,6.70
2015,04,17,05,20,6.70
2015,04,17,05,21,6.70
2015,04,17,05,22,6.70
2015,04,17,05,23,6.70
2015,04,17,05,24,6.70
2015,04,17,05,25,6.70
2015,04,17,05,26,6.70
2015,04,17,05,27,6.70
2015,04,17,05,28,6.60
2015,04,17,05,29,6.60
2015,04,17,05,30,6.60
2015,04,17,05,31,6.60
2015,04,17,05,32,6.60
2015,04,17,05,33,6.60
2015,04,17,05,34,6.60
2015,04,17,05,35,6.60
2015,04,17,05,36,6.50
2015,04,17,05,37,6.50
2015,04,17,05,38,6.50
2015,04,17,05,39,6.50
2015,04,17,05,40,6.50
2015,04,17,05,41,6.50
2015,04,17,05,42,6.40
2015,04,17,05,43,6.40
2015,04,17,05,44,6.40
2015,04,17,05,45,6.50
2015,04,17,05,46,6.50
2015,04,17,05,47,6.60
2015,04,17,05,48,6.60
2015,04,17,05,49,6.60
2015,04,17,05,50,6.60
2015,04,17,05,51,6.60
2015,04,17,05,52,6.60
2015,04,17,05,53,6.60
2015,04,17,05,54,6.60
2015,04,17,05,55,6.60
2015,04,17,05,56,6.60
2015,04,17,05,57,6.60
2015,04,17,05,58,6.60
2015,04,17,05,59,6.60
2015,04,17,06,00,6.60
2015,04,17,06,01,6.50
2015,04,17,06,02,6.50
2015,04,17,06,03,6.50
2015,04,17,06,04,6.60
2015,04,17,06,05,6.60
2015,04,17,06,06,6.60
2015,04,17,06,07,6.60
2015,04,17,06,08,6.60
2015,04,17,06,09,6.60
2015,04,17,06,10,6.60
2015,04,17,06,11,6.60
2015,04,17,06,12,6.60
2015,04,17,06,13,6.60
2015,04,17,06,14,6.60
2015,04,17,06,15,6.60
2015,04,17,06,16,6.60
2015,04,17,06,17,6.60
2015,04,17,06,18,6.60
2015,04,17,06,19,6.60
2015,04,17,06,20,6.60
2015,04,17,06,21,6.60
2015,04,17,06,22,6.60
2015,04,17,06,23,6.60
2015,04,17,06,24,6.60
2015,04,17,06,25,6.60
2015,04,17,06,26,6.60
2015,04,17,06,27,6.60
2015,04,17,06,28,6.60
2015,04,17,06,29,6.60
2015,04,17,06,30,6.60
2015,04,17,06,31,6.60
2015,04,17,06,32,6.70
2015,04,17,06,33,6.70
2015,04,17,06,34,6.70
2015,04,17,06,35,6.70
2015,04,17,06,36,6.70
2015,04,17,06,37,6.70
2015,04,17,06,38,6.70
2015,04,17,06,39,6.70
2015,04,17,06,40,6.70
2015,04,17,06,41,6.70
2015,04,17,06,42,6.70
2015,04,17,06,43,6.80
2015,04,17,06,44,6.80
2015,04,17,06,45,6.80
2015,04,17,06,46,6.80
2015,04,17,06,47,6.80
2015,04,17,06,48,6.80
2015,04,17,06,49,6.80
2015,04,17,06,50,6.80
2015,04,17,06,51,6.80
2015,04,17,06,52,6.80
2015,04,17,06,53,6.90
2015,04,17,06,54,6.90
2015,04,17,06,55,6.90
2015,04,17,06,56,6.90
2015,04,17,06,57,6.90
2015,04,17,06,58,6.90
2015,04,17,06,59,6.90
2015,04,17,07,00,6.90
2015,04,17,07,01,6.90
2015,04,17,07,02,6.90
2015,04,17,07,03,6.90
2015,04,17,07,04,6.90
2015,04,17,07,05,6.90
2015,04,17,07,06,6.90
2015,04,17,07,07,6.90
2015,04,17,07,08,6.90
2015,04,17,07,09,6.90
2015,04,17,07,10,7.00
2015,04,17,07,11,7.00
2015,04,17,07,12,7.00
2015,04,17,07,13,7.00
2015,04,17,07,14,7.00
2015,04,17,07,15,7.00
2015,04,17,07,16,7.00
2015,04,17,07,17,7.10
2015,04,17,07,18,7.10
2015,04,17,07,19,7.10
2015,04,17,07,20,7.10
2015,04,17,07,21,7.10
2015,04,17,07,22,7.10
2015,04,17,07,23,7.10
2015,04,17,07,24,7.10
2015,04,17,07,25,7.10
2015,04,17,07,26,7.10
2015,04,17,07,27,7.20
2015,04,17,07,28,7.20
2015,04,17,07,29,7.20
2015,04,17,07,30,7.20
2015,04,17,07,31,7.20
2015,04,17,07,32,7.20
2015,04,17,07,33,7.20
2015,04,17,07,34,7.30
2015,04,17,07,35,7.30
2015,04,17,07,36,7.30
2015,04,17,07,37,7.30
2015,04,17,07,38,7.30
2015,04,17,07,39,7.30
2015,04,17,07,40,7.30
2015,04,17,07,41,7.30
2015,04,17,07,42,7.40
2015,04,17,07,43,7.40
2015,04,17,07,44,7.40
2015,04,17,07,45,7.40
2015,04,17,07,46,7.40
2015,04,17,07,47,7.40
2015,04,17,07,48,7.50
2015,04,17,07,49,7.50
2015,04,17,07,50,7.60
2015,04,17,07,51,7.60
2015,04,17,07,52,7.60
2015,04,17,07,53,7.60
2015,04,17,07,54,7.60
2015,04,17,07,55,7.60
2015,04,17,07,56,7.60
2015,04,17,07,57,7.60
2015,04,17,07,58,7.60
2015,04,17,07,59,7.70
2015,04,17,08,00,7.70
2015,04,17,08,01,7.70
2015,04,17,08,02,7.70
2015,04,17,08,03,7.70
2015,04,17,08,04,7.70
2015,04,17,08,05,7.70
2015,04,17,08,06,7.70
2015,04,17,08,07,7.80
2015,04,17,08,08,7.80
2015,04,17,08,09,7.80
2015,04,17,08,10,7.80
2015,04,17,08,11,7.80
2015,04,17,08,12,7.90
2015,04,17,08,13,7.90
2015,04,17,08,14,7.90
2015,04,17,08,15,7.90
2015,04,17,08,16,7.90
2015,04,17,08,17,7.90
2015,04,17,08,18,7.90
2015,04,17,08,19,8.00
2015,04,17,08,20,8.00
2015,04,17,08,21,8.10
2015,04,17,08,22,8.10
2015,04,17,08,23,8.10
2015,04,17,08,24,8.10
2015,04,17,08,25,8.10
2015,04,17,08,26,8.10
2015,04,17,08,27,8.10
2015,04,17,08,28,8.10
2015,04,17,08,29,8.10
2015,04,17,08,30,8.10
2015,04,17,08,31,8.10
2015,04,17,08,32,8.20
2015,04,17,08,33,8.20
2015,04,17,08,34,8.20
2015,04,17,08,35,8.20
2015,04,17,08,36,8.20
2015,04,17,08,37,8.20
2015,04,17,08,38,8.20
2015,04,17,08,39,8.20
2015,04,17,08,40,8.20
2015,04,17,08,41,8.20
2015,04,17,08,42,8.30
2015,04,17,08,43,8.30
2015,04,17,08,44,8.40
2015,04,17,08,45,8.40
2015,04,17,08,46,8.40
2015,04,17,08,47,8.50
2015,04,17,08,48,8.50
2015,04,17,08,49,8.50
2015,04,17,08,50,8.60
2015,04,17,08,51,8.70
2015,04,17,08,52,8.70
2015,04,17,08,53,8.80
2015,04,17,08,54,8.80
2015,04,17,08,55,8.90
2015,04,17,08,56,8.90
2015,04,17,08,57,9.00
2015,04,17,08,58,9.00
2015,04,17,08,59,9.10
2015,04,17,09,00,9.10
2015,04,17,09,01,9.20
2015,04,17,09,02,9.20
2015,04,17,09,03,9.30
2015,04,17,09,04,9.30
2015,04,17,09,05,9.40
2015,04,17,09,06,9.50
2015,04,17,09,07,9.60
2015,04,17,09,08,9.60
2015,04,17,09,09,9.60
2015,04,17,09,10,9.70
2015,04,17,09,11,9.70
2015,04,17,09,12,9.70
2015,04,17,09,13,9.80
2015,04,17,09,14,9.80
2015,04,17,09,15,9.90
2015,04,17,09,16,9.90
2015,04,17,09,17,10.00
2015,04,17,09,18,10.10
2015,04,17,09,19,10.10
2015,04,17,09,20,10.20
2015,04,17,09,21,10.30
2015,04,17,09,22,10.40
2015,04,17,09,23,10.60
2015,04,17,09,24,10.70
2015,04,17,09,25,10.80
2015,04,17,09,26,10.90
2015,04,17,09,27,11.00
2015,04,17,09,28,11.00
2015,04,17,09,29,11.10
2015,04,17,09,30,11.20
2015,04,17,09,31,11.30
2015,04,17,09,32,11.30
2015,04,17,09,33,11.40
2015,04,17,09,34,11.40
2015,04,17,09,35,11.50
2015,04,17,09,36,11.50
2015,04,17,09,37,11.50
2015,04,17,09,38,11.50
2015,04,17,09,39,11.50
2015,04,17,09,40,11.50
2015,04,17,09,41,11.50
2015,04,17,09,42,11.60
2015,04,17,09,43,11.60
2015,04,17,09,44,11.60
2015,04,17,09,45,11.70
2015,04,17,09,46,11.70
2015,04,17,09,47,11.80
2015,04,17,09,48,11.80
2015,04,17,09,49,11.80
2015,04,17,09,50,11.90
2015,04,17,09,51,12.00
2015,04,17,09,52,12.00
2015,04,17,09,53,12.10
2015,04,17,09,54,12.10
2015,04,17,09,55,12.10
2015,04,17,09,56,12.20
2015,04,17,09,57,12.20
2015,04,17,09,58,12.20
2015,04,17,09,59,12.20
2015,04,17,10,00,12.20
2015,04,17,10,01,12.20
2015,04,17,10,02,12.30
2015,04,17,10,03,12.30
2015,04,17,10,04,12.30
2015,04,17,10,05,12.40
2015,04,17,10,06,12.50
2015,04,17,10,07,12.50
2015,04,17,10,08,12.60
2015,04,17,10,09,12.60
2015,04,17,10,10,12.60
2015,04,17,10,11,12.70
2015,04,17,10,12,12.70
2015,04,17,10,13,12.70
2015,04,17,10,14,12.80
2015,04,17,10,15,12.80
2015,04,17,10,16,12.80
2015,04,17,10,17,12.80
2015,04,17,10,18,12.80
2015,04,17,10,19,12.90
2015,04,17,10,20,12.90
2015,04,17,10,21,13.00
2015,04,17,10,22,13.00
2015,04,17,10,23,13.10
2015,04,17,10,24,13.10
2015,04,17,10,25,13.10
2015,04,17,10,26,13.20
2015,04,17,10,27,13.30
2015,04,17,10,28,13.30
2015,04,17,10,29,13.30
2015,04,17,10,30,13.30
2015,04,17,10,31,13.30
2015,04,17,10,32,13.30
2015,04,17,10,33,13.30
2015,04,17,10,34,13.30
2015,04,17,10,35,13.30
2015,04,17,10,36,13.20
2015,04,17,10,37,13.10
2015,04,17,10,38,13.10
2015,04,17,10,39,13.10
2015,04,17,10,40,13.20
2015,04,17,10,41,13.20
2015,04,17,10,42,13.20
2015,04,17,10,43,13.20
2015,04,17,10,44,13.20
2015,04,17,10,45,13.20
2015,04,17,10,46,13.30
2015,04,17,10,47,13.40
2015,04,17,10,48,13.50
2015,04,17,10,49,13.60
2015,04,17,10,50,13.60
2015,04,17,10,51,13.70
2015,04,17,10,52,13.80
2015,04,17,10,53,13.90
2015,04,17,10,54,14.00
2015,04,17,10,55,14.00
2015,04,17,10,56,14.10
2015,04,17,10,57,14.10
2015,04,17,10,58,14.20
2015,04,17,10,59,14.20
2015,04,17,11,00,14.20
2015,04,17,11,01,14.20
2015,04,17,11,02,14.20
2015,04,17,11,03,14.20
2015,04,17,11,04,14.20
2015,04,17,11,05,14.30
2015,04,17,11,06,14.30
2015,04,17,11,07,14.40
2015,04,17,11,08,14.50
2015,04,17,11,09,14.50
2015,04,17,11,10,14.40
2015,04,17,11,11,14.20
2015,04,17,11,12,14.20
2015,04,17,11,13,14.10
2015,04,17,11,14,14.20
2015,04,17,11,15,14.20
2015,04,17,11,16,14.30
2015,04,17,11,17,14.40
2015,04,17,11,18,14.40
2015,04,17,11,19,14.40
2015,04,17,11,20,14.40
2015,04,17,11,21,14.30
2015,04,17,11,22,14.30
2015,04,17,11,23,14.20
2015,04,17,11,24,14.20
2015,04,17,11,25,14.30
2015,04,17,11,26,14.30
2015,04,17,11,27,14.40
2015,04,17,11,28,14.40
2015,04,17,11,29,14.40
2015,04,17,11,30,14.40
2015,04,17,11,31,14.40
2015,04,17,11,32,14.40
2015,04,17,11,33,14.40
2015,04,17,11,34,14.30
2015,04,17,11,35,14.30
2015,04,17,11,36,14.30
2015,04,17,11,37,14.30
2015,04,17,11,38,14.30
2015,04,17,11,39,14.40
2015,04,17,11,40,14.50
2015,04,17,11,41,14.50
2015,04,17,11,42,14.50
2015,04,17,11,43,14.50
2015,04,17,11,44,14.60
2015,04,17,11,45,14.50
2015,04,17,11,46,14.50
2015,04,17,11,47,14.50
2015,04,17,11,48,14.50
2015,04,17,11,49,14.40
2015,04,17,11,50,14.40
2015,04,17,11,51,14.40
2015,04,17,11,52,14.30
2015,04,17,11,53,14.30
2015,04,17,11,54,14.30
2015,04,17,11,55,14.30
2015,04,17,11,56,14.40
2015,04,17,11,57,14.40
2015,04,17,11,58,14.40
2015,04,17,11,59,14.40
2015,04,17,12,00,14.50
2015,04,17,12,01,14.60
2015,04,17,12,02,14.60
2015,04,17,12,03,14.70
2015,04,17,12,04,14.70
2015,04,17,12,05,14.70
2015,04,17,12,06,14.70
2015,04,17,12,07,14.60
2015,04,17,12,08,14.60
2015,04,17,12,09,14.60
2015,04,17,12,10,14.60
2015,04,17,12,11,14.70
2015,04,17,12,12,14.80
2015,04,17,12,13,14.90
2015,04,17,12,14,14.90
2015,04,17,12,15,14.90
2015,04,17,12,16,14.90
2015,04,17,12,17,15.00
2015,04,17,12,18,15.00
2015,04,17,12,19,15.10
2015,04,17,12,20,15.10
2015,04,17,12,21,15.20
2015,04,17,12,22,15.20
2015,04,17,12,23,15.10
2015,04,17,12,24,15.10
2015,04,17,12,25,15.10
2015,04,17,12,26,15.10
2015,04,17,12,27,15.10
2015,04,17,12,28,15.00
2015,04,17,12,29,15.00
2015,04,17,12,30,15.00
2015,04,17,12,31,15.00
2015,04,17,12,32,15.00
2015,04,17,12,33,14.90
2015,04,17,12,34,14.90
2015,04,17,12,35,14.80
2015,04,17,12,36,14.80
2015,04,17,12,37,14.80
2015,04,17,12,38,14.80
2015,04,17,12,39,14.90
2015,04,17,12,40,14.90
2015,04,17,12,41,14.90
2015,04,17,12,42,14.90
2015,04,17,12,43,15.00
2015,04,17,12,44,15.10
2015,04,17,12,45,15.10
2015,04,17,12,46,15.10
2015,04,17,12,47,15.10
2015,04,17,12,48,15.20
2015,04,17,12,49,15.20
2015,04,17,12,50,15.30
2015,04,17,12,51,15.30
2015,04,17,12,52,15.30
2015,04,17,12,53,15.30
2015,04,17,12,54,15.30
2015,04,17,12,55,15.30
2015,04,17,12,56,15.30
2015,04,17,12,57,15.30
2015,04,17,12,58,15.30
2015,04,17,12,59,15.30
2015,04,17,13,00,15.30
2015,04,17,13,01,15.30
2015,04,17,13,02,15.30
2015,04,17,13,03,15.30
2015,04,17,13,04,15.30
2015,04,17,13,05,15.40
2015,04,17,13,06,15.40
2015,04,17,13,07,15.40
2015,04,17,13,08,15.40
2015,04,17,13,09,15.40
2015,04,17,13,10,15.40
2015,04,17,13,11,15.50
2015,04,17,13,12,15.60
2015,04,17,13,13,15.60
2015,04,17,13,14,15.50
2015,04,17,13,15,15.50
2015,04,17,13,16,15.50
2015,04,17,13,17,15.40
2015,04,17,13,18,15.50
2015,04,17,13,19,15.50
2015,04,17,13,20,15.60
2015,04,17,13,21,15.60
2015,04,17,13,22,15.70
2015,04,17,13,23,15.70
2015,04,17,13,24,15.80
2015,04,17,13,25,15.80
2015,04,17,13,26,15.80
2015,04,17,13,27,15.80
2015,04,17,13,28,15.90
2015,04,17,13,29,15.90
2015,04,17,13,30,15.90
2015,04,17,13,31,15.90
2015,04,17,13,32,15.90
2015,04,17,13,33,15.80
2015,04,17,13,34,15.70
2015,04,17,13,35,15.70
2015,04,17,13,36,15.80
2015,04,17,13,37,15.80
2015,04,17,13,38,16.00
2015,04,17,13,39,15.90
2015,04,17,13,40,16.00
2015,04,17,13,41,16.10
2015,04,17,13,42,16.10
2015,04,17,13,43,16.20
2015,04,17,13,44,16.10
2015,04,17,13,45,16.20
2015,04,17,13,46,16.20
2015,04,17,13,47,16.30
2015,04,17,13,48,16.30
2015,04,17,13,49,16.20
2015,04,17,13,50,16.10
2015,04,17,13,51,16.00
2015,04,17,13,52,16.00
2015,04,17,13,53,16.00
2015,04,17,13,54,16.00
2015,04,17,13,55,16.10
2015,04,17,13,56,16.20
2015,04,17,13,57,16.20
2015,04,17,13,58,16.30
2015,04,17,13,59,16.30
2015,04,17,14,00,16.40
2015,04,17,14,01,16.50
2015,04,17,14,02,16.60
2015,04,17,14,03,16.60
2015,04,17,14,04,16.60
2015,04,17,14,05,16.60
2015,04,17,14,06,16.60
2015,04,17,14,07,16.70
2015,04,17,14,08,16.60
2015,04,17,14,09,16.50
2015,04,17,14,10,16.40
2015,04,17,14,11,16.40
2015,04,17,14,12,16.30
2015,04,17,14,13,16.30
2015,04,17,14,14,16.20
2015,04,17,14,15,16.20
2015,04,17,14,16,16.30
2015,04,17,14,17,16.30
2015,04,17,14,18,16.30
2015,04,17,14,19,16.40
2015,04,17,14,20,16.50
2015,04,17,14,21,16.50
2015,04,17,14,22,16.60
2015,04,17,14,23,16.70
2015,04,17,14,24,16.70
2015,04,17,14,25,16.70
2015,04,17,14,26,16.60
2015,04,17,14,27,16.60
2015,04,17,14,28,16.60
2015,04,17,14,29,16.50
2015,04,17,14,30,16.40
2015,04,17,14,31,16.30
2015,04,17,14,32,16.20
2015,04,17,14,33,16.10
2015,04,17,14,34,16.10
2015,04,17,14,35,16.10
2015,04,17,14,36,16.10
2015,04,17,14,37,16.10
2015,04,17,14,38,16.20
2015,04,17,14,39,16.20
2015,04,17,14,40,16.10
2015,04,17,14,41,16.10
2015,04,17,14,42,16.10
2015,04,17,14,43,16.10
2015,04,17,14,44,16.10
2015,04,17,14,45,15.90
2015,04,17,14,46,15.80
2015,04,17,14,47,15.80
2015,04,17,14,48,15.80
2015,04,17,14,49,15.80
2015,04,17,14,50,15.90
2015,04,17,14,51,16.00
2015,04,17,14,52,16.00
2015,04,17,14,53,15.90
2015,04,17,14,54,15.80
2015,04,17,14,55,15.80
2015,04,17,14,56,15.70
2015,04,17,14,57,15.80
2015,04,17,14,58,15.80
2015,04,17,14,59,15.80
2015,04,17,15,00,15.90
2015,04,17,15,01,16.00
2015,04,17,15,02,16.10
2015,04,17,15,03,16.10
2015,04,17,15,04,16.20
2015,04,17,15,05,16.20
2015,04,17,15,06,16.20
2015,04,17,15,07,16.20
2015,04,17,15,08,16.20
2015,04,17,15,09,16.20
2015,04,17,15,10,16.20
2015,04,17,15,11,16.30
2015,04,17,15,12,16.30
2015,04,17,15,13,16.30
2015,04,17,15,14,16.20
2015,04,17,15,15,16.10
2015,04,17,15,16,16.20
2015,04,17,15,17,16.20
2015,04,17,15,18,16.20
2015,04,17,15,19,16.20
2015,04,17,15,20,16.30
2015,04,17,15,21,16.30
2015,04,17,15,22,16.30
2015,04,17,15,23,16.30
2015,04,17,15,24,16.40
2015,04,17,15,25,16.50
2015,04,17,15,26,16.60
2015,04,17,15,27,16.60
2015,04,17,15,28,16.70
2015,04,17,15,29,16.80
2015,04,17,15,30,16.90
2015,04,17,15,31,16.90
2015,04,17,15,32,16.90
2015,04,17,15,33,17.00
2015,04,17,15,34,17.10
2015,04,17,15,35,17.10
2015,04,17,15,36,17.20
2015,04,17,15,37,17.10
2015,04,17,15,38,17.10
2015,04,17,15,39,17.10
2015,04,17,15,40,17.00
2015,04,17,15,41,16.90
2015,04,17,15,42,16.80
2015,04,17,15,43,16.80
2015,04,17,15,44,16.70
2015,04,17,15,45,16.60
2015,04,17,15,46,16.60
2015,04,17,15,47,16.60
2015,04,17,15,48,16.60
2015,04,17,15,49,16.60
2015,04,17,15,50,16.60
2015,04,17,15,51,16.60
2015,04,17,15,52,16.50
2015,04,17,15,53,16.40
2015,04,17,15,54,16.40
2015,04,17,15,55,16.50
2015,04,17,15,56,16.60
2015,04,17,15,57,16.60
2015,04,17,15,58,16.70
2015,04,17,15,59,16.80
2015,04,17,16,00,16.80
2015,04,17,16,01,16.80
2015,04,17,16,02,16.70
2015,04,17,16,03,16.70
2015,04,17,16,04,16.70
2015,04,17,16,05,16.70
2015,04,17,16,06,16.70
2015,04,17,16,07,16.70
2015,04,17,16,08,16.70
2015,04,17,16,09,16.80
2015,04,17,16,10,16.70
2015,04,17,16,11,16.70
2015,04,17,16,12,16.70
2015,04,17,16,13,16.80
2015,04,17,16,14,16.70
2015,04,17,16,15,16.70
2015,04,17,16,16,16.70
2015,04,17,16,17,16.70
2015,04,17,16,18,16.70
2015,04,17,16,19,16.60
2015,04,17,16,20,16.60
2015,04,17,16,21,16.60
2015,04,17,16,22,16.60
2015,04,17,16,23,16.60
2015,04,17,16,24,16.60
2015,04,17,16,25,16.50
2015,04,17,16,26,16.40
2015,04,17,16,27,16.40
2015,04,17,16,28,16.30
2015,04,17,16,29,16.30
2015,04,17,16,30,16.20
2015,04,17,16,31,16.20
2015,04,17,16,32,16.10
2015,04,17,16,33,16.10
2015,04,17,16,34,16.00
2015,04,17,16,35,16.00
2015,04,17,16,36,15.90
2015,04,17,16,37,15.90
2015,04,17,16,38,16.00
2015,04,17,16,39,16.10
2015,04,17,16,40,16.10
2015,04,17,16,41,16.20
2015,04,17,16,42,16.30
2015,04,17,16,43,16.40
2015,04,17,16,44,16.40
2015,04,17,16,45,16.40
2015,04,17,16,46,16.40
2015,04,17,16,47,16.40
2015,04,17,16,48,16.40
2015,04,17,16,49,16.40
2015,04,17,16,50,16.20
2015,04,17,16,51,16.10
2015,04,17,16,52,16.10
2015,04,17,16,53,16.00
2015,04,17,16,54,15.90
2015,04,17,16,55,15.90
2015,04,17,16,56,15.90
2015,04,17,16,57,15.90
2015,04,17,16,58,15.80
2015,04,17,16,59,15.80
2015,04,17,17,00,15.70
2015,04,17,17,01,15.70
2015,04,17,17,02,15.60
2015,04,17,17,03,15.60
2015,04,17,17,04,15.60
2015,04,17,17,05,15.50
2015,04,17,17,06,15.50
2015,04,17,17,07,15.50
2015,04,17,17,08,15.40
2015,04,17,17,09,15.40
2015,04,17,17,10,15.40
2015,04,17,17,11,15.40
2015,04,17,17,12,15.30
2015,04,17,17,13,15.30
2015,04,17,17,14,15.30
2015,04,17,17,15,15.20
2015,04,17,17,16,15.10
2015,04,17,17,17,15.10
2015,04,17,17,18,15.10
2015,04,17,17,19,15.10
2015,04,17,17,20,15.20
2015,04,17,17,21,15.20
2015,04,17,17,22,15.20
2015,04,17,17,23,15.20
2015,04,17,17,24,15.20
2015,04,17,17,25,15.20
2015,04,17,17,26,15.20
2015,04,17,17,27,15.20
2015,04,17,17,28,15.10
2015,04,17,17,29,15.00
2015,04,17,17,30,14.90
2015,04,17,17,31,14.90
2015,04,17,17,32,14.90
2015,04,17,17,33,14.90
2015,04,17,17,34,14.90
2015,04,17,17,35,15.00
2015,04,17,17,36,15.00
2015,04,17,17,37,15.00
2015,04,17,17,38,15.00
2015,04,17,17,39,15.00
2015,04,17,17,40,15.10
2015,04,17,17,41,15.10
2015,04,17,17,42,15.10
2015,04,17,17,43,15.10